Theta_e
363 361 363 364 361 357 359 357 353 353 346 348 348 347 347 343 340 341 343 339 339 338 340 337 337 335 335 333 333 332 332 333 334 332 330 329 332 330 330 330 328 328 328
365 363 362 364 364 361 358 359 354 352 352 347 348 347 347 345 340 343 343 339 338 341 337 338 336 336 334 333 332 332 334 333 332 332 332 331 331 328 327 327 326 327 327
365 365 364 362 364 363 359 357 358 354 352 350 348 347 348 346 340 339 342 341 338 339 338 338 334 334 332 333 335 335 336 334 333 333 333 332 331 329 329 329 328 329 328
366 365 364 364 363 363 363 359 358 362 357 352 349 348 347 346 342 341 341 341 337 339 339 340 338 336 333 335 336 337 335 334 334 333 333 332 331 330 330 328 328 327 327
364 365 363 363 364 364 363 364 360 360 361 357 352 349 347 346 343 341 340 340 336 333 337 338 336 334 333 335 336 336 335 334 333 332 332 330 329 329 330 329 329 328 328
362 363 363 362 363 362 363 362 364 361 361 360 355 351 350 347 345 343 341 341 337 337 337 337 336 335 334 336 336 334 334 332 331 331 330 328 328 329 329 329 328 327 326
357 361 361 361 361 361 361 362 363 364 362 363 358 354 351 350 347 344 342 340 339 336 336 337 339 337 337 328 333 334 333 332 328 330 329 328 324 324 329 329 327 326 326
354 357 359 359 360 361 361 362 362 363 363 363 361 357 352 350 349 345 342 340 338 337 338 340 339 337 331 330 333 333 332 329 328 330 329 324 328 329 329 328 327 326 323
351 352 356 358 359 360 361 361 362 361 363 363 362 358 353 350 349 345 341 339 337 336 338 338 338 335 327 333 332 330 331 329 330 330 328 330 328 326 328 329 326 322 320
350 353 355 356 358 360 361 362 362 363 364 363 361 359 355 350 348 344 339 335 332 332 335 334 334 332 325 331 330 329 331 330 330 328 327 328 327 326 323 323 322 322 321
353 354 358 358 359 362 362 362 364 364 364 362 358 353 351 349 346 342 338 335 335 333 332 331 332 331 330 331 330 330 330 329 329 326 325 324 322 320 321 322 317 316 318
362 359 368 365 367 366 366 366 365 360 357 353 350 347 347 346 344 341 339 337 337 334 334 334 333 330 330 332 331 330 329 328 324 321 319 319 320 321 316 315 313 314 315
364 368 370 370 370 368 367 359 355 356 351 347 346 344 343 342 341 339 337 336 336 336 335 334 334 332 332 330 330 330 328 325 320 319 319 321 321 317 315 312 312 311 309
366 366 364 364 362 360 356 354 351 348 346 345 343 342 341 340 341 341 340 340 337 335 334 332 332 330 327 328 328 327 324 321 320 320 320 321 319 314 313 312 310 308 307
359 357 355 353 351 351 350 348 348 347 346 343 343 342 341 342 342 340 339 338 332 334 332 330 328 326 326 325 324 323 322 321 321 320 321 322 315 313 312 309 308 308 308
350 350 346 344 343 343 342 340 344 344 344 343 343 342 342 340 338 337 333 333 331 330 328 328 328 328 327 326 325 324 323 323 322 321 319 315 313 312 309 308 308 307 308
348 345 344 342 341 339 338 337 330 336 341 341 340 340 339 338 337 334 334 330 328 328 329 329 331 330 328 326 326 326 325 323 323 320 314 312 308 308 307 308 306 307 307
347 345 343 341 341 340 338 335 333 330 329 330 331 330 330 332 330 327 326 327 326 326 326 325 324 323 322 320 318 316 315 316 313 310 309 307 307 307 307 306 305 307 305
345 344 343 341 340 340 339 335 335 333 331 330 328 328 328 327 327 327 326 325 323 323 322 320 320 316 315 315 314 314 314 313 311 309 307 307 307 306 306 305 305 305 305
346 346 345 343 342 341 340 339 334 333 330 327 326 326 326 325 325 324 322 322 322 321 322 317 316 316 315 315 314 313 312 310 309 307 307 307 305 304 304 304 305 304 306
335 337 343 341 339 339 339 337 335 333 330 326 324 325 326 325 324 321 321 320 319 321 317 317 316 315 314 314 313 312 310 307 306 307 305 304 304 304 304 304 304 305 306
337 334 334 334 333 333 333 332 333 332 329 327 326 324 325 322 322 322 321 320 320 319 318 317 316 314 312 311 311 307 306 305 304 304 304 303 303 303 304 304 305 305 304
333 335 332 331 332 333 332 330 330 332 330 329 327 324 320 323 323 323 323 322 321 319 317 316 314 312 310 308 307 305 303 303 303 303 303 303 303 303 304 304 304 304 303
330 331 330 330 329 329 327 326 327 328 328 328 327 324 322 323 324 324 323 322 320 318 317 316 314 311 309 306 304 302 301 302 302 302 301 299 301 303 303 303 302 303 303
330 330 330 328 328 327 327 328 327 326 326 325 324 323 323 323 324 322 322 319 318 317 316 315 314 312 311 309 308 303 300 301 300 299 299 298 295 301 303 302 301 303 303
327 328 328 327 327 327 326 326 325 326 327 326 325 325 324 324 321 320 320 319 318 317 316 315 314 313 310 309 307 304 302 300 299 297 294 294 296 302 303 302 302 302 303
Wind_Speed
40 39 36 37 40 38 35 33 33 26 27 23 36 35 32 29 28 28 26 24 25 24 22 20 19 17 15 14 8 5 4 5 6 8 9 7 7 12 14 15 17 18 19
41 38 39 35 36 39 40 36 36 33 31 32 34 37 35 33 31 31 30 27 28 27 25 22 19 16 17 14 13 10 8 9 8 9 12 13 13 14 18 18 19 19 20
40 38 36 36 36 37 41 40 36 38 38 34 36 39 39 35 33 34 33 30 28 27 30 25 23 21 20 18 18 15 13 10 10 8 12 13 16 18 22 22 16 11 10
39 38 37 38 41 40 38 39 42 38 41 41 39 41 41 38 36 35 34 32 33 28 26 27 26 24 21 19 16 17 15 15 14 14 18 17 16 15 8 8 17 18 18
40 39 40 40 38 36 36 36 39 38 40 42 40 39 39 37 37 38 40 37 34 29 26 22 26 24 21 20 17 20 17 15 15 17 18 20 20 17 14 12 16 17 19
40 41 38 37 37 37 36 35 35 39 35 39 39 38 37 38 39 38 40 37 33 31 27 24 24 23 22 18 20 24 18 8 15 23 23 16 17 18 20 20 20 17 6
41 39 40 38 37 38 35 35 36 36 33 36 36 37 38 38 38 35 33 32 31 28 26 26 24 22 21 18 18 17 11 13 18 24 24 22 21 22 23 21 22 20 22
39 40 41 41 40 37 37 36 36 33 35 33 35 36 36 34 35 35 31 28 27 24 22 23 24 23 19 19 19 16 16 23 20 22 20 23 22 22 25 25 23 23 27
37 39 41 42 40 38 36 36 33 32 29 28 33 32 32 32 30 29 27 27 27 23 21 23 25 24 19 20 18 21 22 23 20 18 17 18 19 18 21 22 23 23 14
40 41 39 40 38 37 36 34 30 29 27 30 27 29 33 32 28 28 25 27 27 27 29 25 23 25 23 22 20 19 20 22 18 14 13 13 14 16 19 23 27 20 18
35 32 34 36 35 34 34 31 30 29 27 27 28 25 25 26 24 23 22 24 26 27 26 26 27 26 24 20 19 19 21 17 12 13 16 17 19 19 20 17 10 11 14
29 33 31 32 30 34 34 33 33 30 28 24 22 19 19 20 21 21 20 25 24 22 22 21 20 19 20 18 18 19 18 13 13 14 15 15 15 15 10 11 14 15 15
30 31 31 33 32 35 36 30 26 25 24 21 20 18 17 17 16 17 18 21 27 20 18 15 17 14 14 15 17 16 13 13 12 12 13 12 10 13 8 13 14 14 16
29 28 29 31 30 29 26 26 26 22 21 20 19 17 16 14 16 17 18 20 22 24 20 18 17 14 13 10 10 13 14 13 13 13 14 13 12 6 11 12 15 17 21
30 28 28 28 29 28 24 18 23 22 21 21 18 18 17 17 20 17 17 17 17 19 19 14 13 11 10 11 12 14 14 14 16 16 16 16 7 9 10 13 16 18 20
27 23 24 26 28 29 27 22 17 16 14 12 13 15 15 14 14 15 13 12 10 10 13 14 15 13 12 14 17 18 18 18 17 15 8 6 9 8 11 15 15 17 21
27 27 28 25 24 23 25 25 21 15 13 12 11 14 10 16 19 17 14 12 10 11 12 14 16 13 11 7 9 13 15 17 17 11 6 2 3 9 13 12 15 19 19
29 29 25 22 24 23 25 25 23 19 17 18 15 14 16 17 17 14 11 10 11 12 12 10 8 2 7 9 11 11 12 10 8 3 3 8 8 9 9 12 16 18 21
25 20 22 22 27 25 24 23 29 28 24 21 18 16 17 16 13 11 13 12 10 7 8 7 6 16 14 12 10 7 4 2 1 5 4 5 8 7 9 13 18 19 23
17 20 24 22 22 24 26 22 21 21 24 26 24 24 22 21 18 18 17 15 10 4 7 14 11 7 5 4 3 1 0 1 3 7 8 5 4 6 10 16 15 19 25
14 12 21 22 26 26 27 24 25 27 26 25 25 27 27 25 24 21 18 15 12 7 16 14 10 5 2 1 2 3 4 3 7 4 5 3 5 9 13 10 14 21 22
10 10 13 19 21 17 16 12 27 28 26 24 21 21 23 21 21 19 17 14 14 16 13 11 9 4 1 7 7 6 3 5 9 7 6 2 3 10 11 13 17 22 17
5 9 11 5 8 12 10 11 16 26 24 24 22 23 26 24 20 19 22 20 18 16 14 12 12 8 3 6 4 2 3 2 6 4 2 1 3 8 13 14 18 16 16
10 11 14 10 10 17 24 25 22 23 23 22 20 26 27 22 13 19 21 24 20 19 16 13 13 12 10 9 6 5 5 6 5 3 2 5 7 7 13 16 11 18 19
15 16 21 14 13 13 12 13 14 15 20 20 18 25 27 20 15 16 25 26 21 17 17 16 16 14 11 10 9 7 7 6 5 7 9 10 8 7 10 10 10 16 18
14 12 14 13 8 6 8 6 9 5 12 21 25 23 24 20 16 18 25 24 21 20 19 18 18 17 18 15 11 6 6 6 7 8 7 6 6 4 7 10 10 17 14
Wind_Direction
191 195 197 202 210 212 214 213 213 209 216 214 206 205 204 205 204 207 214 214 216 217 219 219 223 207 216 230 237 246 229 215 223 254 277 309 247 296 295 283 281 284 286
191 193 198 199 203 211 213 216 214 214 213 217 208 208 208 207 206 209 214 216 216 222 223 221 217 202 208 222 225 237 251 255 259 270 294 292 283 285 283 279 287 284 286
189 192 196 198 201 206 214 213 216 217 218 217 213 209 212 211 210 213 218 220 222 232 231 230 230 224 222 214 230 229 249 258 269 274 282 278 277 294 289 281 300 302 302
188 192 196 199 204 207 209 212 212 216 216 216 214 214 214 214 214 214 219 222 225 231 234 235 232 230 233 230 231 239 235 261 270 276 284 291 300 304 286 294 312 313 305
188 193 199 202 205 208 210 210 212 214 218 218 216 213 214 215 214 216 222 221 221 225 233 240 237 240 241 247 245 252 249 261 280 285 276 283 290 296 293 307 309 308 303
189 196 199 201 204 207 208 209 207 211 216 217 216 216 215 217 219 225 226 223 224 226 233 240 239 239 239 241 249 259 255 273 291 290 281 278 284 286 296 304 304 303 308
195 193 197 199 202 205 206 205 207 206 209 214 212 215 217 220 222 224 226 224 225 228 235 239 237 235 234 234 265 261 268 243 264 262 283 277 285 295 291 287 284 284 278
194 195 194 196 202 203 202 204 204 206 205 208 208 213 215 217 224 220 218 221 219 222 235 233 232 227 221 236 263 272 263 261 271 268 273 282 283 290 287 282 284 283 284
194 196 195 195 197 199 201 201 201 201 201 202 207 206 208 213 216 217 212 213 221 223 229 232 232 234 243 242 244 258 267 276 282 286 282 282 287 291 284 280 275 272 274
197 199 195 193 194 194 195 194 196 193 196 199 198 208 211 212 212 214 211 215 226 231 230 234 234 242 248 249 252 261 270 281 288 280 275 276 290 292 289 282 284 272 274
197 190 186 188 190 187 182 185 183 182 186 190 197 197 205 213 216 217 214 216 228 233 237 240 238 236 247 250 258 264 268 276 267 270 280 286 288 292 297 296 309 305 281
177 174 181 178 170 167 169 171 186 182 169 173 181 186 203 211 221 222 228 223 230 235 234 240 240 244 250 252 259 261 262 253 266 281 289 289 296 309 300 310 323 321 313
163 153 155 153 154 162 160 157 149 163 160 160 168 177 198 208 217 224 226 228 232 227 225 232 239 243 239 256 263 261 242 244 260 268 272 283 289 305 313 324 323 321 319
130 129 135 132 133 143 148 148 143 148 148 158 168 177 195 196 205 208 213 219 221 223 224 237 249 253 265 261 228 225 234 245 255 266 268 269 292 296 324 329 325 323 320
113 115 115 118 124 126 128 134 151 158 171 169 181 184 188 192 203 210 205 203 210 216 228 236 238 230 226 234 241 244 246 246 241 248 260 279 271 316 318 322 316 315 316
111 113 119 121 127 128 125 113 135 149 157 175 182 182 181 196 195 181 180 191 196 201 206 214 223 225 243 255 250 243 239 246 239 251 260 256 300 308 319 318 316 317 314
121 125 126 128 129 130 128 135 125 131 156 169 171 190 197 174 178 172 177 193 200 197 209 218 224 239 258 232 237 241 237 239 243 238 263 294 325 320 320 314 320 319 316
132 141 135 143 140 146 148 147 144 141 139 132 138 151 154 162 168 175 183 182 182 200 214 221 234 249 136 125 124 127 119 131 134 146 314 315 309 315 317 328 325 320 322
138 149 152 152 155 155 156 167 155 161 155 161 164 169 168 176 182 174 178 182 193 207 254 237 156 125 110 106 105 108 114 112 10 330 324 326 325 316 329 323 323 325 328
151 173 162 170 168 168 170 165 162 152 167 177 181 184 177 177 178 184 188 190 197 193 134 140 121 107 97 90 87 89 7 315 302 289 277 255 344 351 330 323 323 331 328
99 108 167 177 170 178 177 167 167 164 176 180 188 193 190 185 189 190 185 190 191 183 152 133 120 102 27 305 260 273 269 279 292 279 140 75 6 343 339 335 331 334 333
140 139 141 158 165 170 179 178 163 171 175 177 182 187 192 187 192 186 185 181 194 169 171 158 148 140 140 168 167 179 238 264 299 151 130 113 334 340 344 334 337 336 336
111 185 177 163 209 184 162 135 137 165 161 171 180 176 182 189 196 203 202 188 184 179 172 167 149 149 157 178 195 282 237 125 138 139 137 267 282 336 343 334 334 339 342
81 127 107 107 115 119 114 106 112 126 142 162 173 184 184 194 201 199 197 194 189 178 180 177 170 173 167 162 169 192 218 205 204 219 288 310 273 297 331 334 338 347 344
116 134 137 133 121 100 103 129 144 157 171 175 181 196 194 203 195 190 190 183 182 192 197 196 188 187 201 223 227 217 199 209 248 278 284 288 278 282 332 327 334 345 343
128 145 130 122 104 143 147 156 141 225 228 198 188 194 195 197 197 193 194 188 198 204 198 194 195 202 197 207 215 221 229 259 288 290 274 257 238 293 329 326 339 344 340